Diyarbakir, Turkey

3:44 PM +03 on February 27, 2017 (GMT +0300)
Diyarbakir

Weather History for LTCC - October, 2011

Change the Weather History Date:

Tuesday, October 4, 2011

  Actual Average Record
Temperature  
Mean Temperature 62 °F -  
Max Temperature 75 °F 75 °F 89 °F (2007)
Min Temperature 48 °F 50 °F 48 °F (2011)
Degree Days  
Heating Degree Days 4    
Growing Degree Days 12 (Base 50)    
Moisture  
Dew Point 23 °F    
Average Humidity 24    
Maximum Humidity 46    
Minimum Humidity 4    
Precipitation  
Precipitation 0.00 in 0.05 in - ()
Sea Level Pressure  
Sea Level Pressure 30.04 in    
Wind  
Wind Speed 9 mph ()    
Max Wind Speed 16 mph    
Max Gust Speed -    
Visibility 10.3 miles    
Events      
Averages and records for this station are not official NWS values.
T = Trace of Precipitation, MM = Missing Value Source: Averaged Metar Reports

Daily Weather History Graph

Daily Weather History Graph

Search for Another Location

Airport or City:

Trip Planner

Search our weather history database for the weather conditions in past years. The results will help you decide how hot, cold, wet, or windy it might be!

Date:

Astronomy

Oct. 04, 2011 Rise Set
Actual Time 6:16 AM EEST 5:58 PM EEST
Civil Twilight 5:50 AM EEST 6:24 PM EEST
Nautical Twilight 5:20 AM EEST 6:55 PM EEST
Astronomical Twilight 4:49 AM EEST 7:25 PM EEST
Moon 1:38 PM EEST (10/4) 11:48 PM EEST (10/4)
Length of Visible Light 12h 34m
Length of Day
11h 41m
First Quarter, 53% of the Moon is Illuminated
Oct 4
First Quarter
Oct 12
Full
Oct 20
Last Quarter
Oct 26
New
Nov 2
First Quarter

Hourly Weather History & Observations

Time (EEST) Temp. Dew Point Humidity Pressure Visibility Wind Dir Wind Speed Gust Speed Precip Events Conditions
12:20 AM 60.8 °F 28.4 °F 29% 30.04 in - WNW 13.8 mph - N/A   Clear
12:50 AM 60.8 °F 26.6 °F 27% 30.04 in - NW 15.0 mph - N/A   Clear
1:20 AM 59.0 °F 26.6 °F 29% 30.04 in - NW 13.8 mph - N/A   Clear
1:50 AM 59.0 °F 26.6 °F 29% 30.04 in - NW 15.0 mph - N/A   Clear
2:20 AM 59.0 °F 26.6 °F 29% 30.04 in - NW 16.1 mph - N/A   Clear
2:50 AM 57.2 °F 26.6 °F 31% 30.04 in - NW 15.0 mph - N/A   Clear
3:00 AM 58 °F 27 °F 19% 29.98 in 12 mi NW 15.0 mph - -  
3:20 AM 53.6 °F 28.4 °F 38% 30.06 in - WNW 9.2 mph - N/A   Clear
3:50 AM 51.8 °F 28.4 °F 41% 30.06 in - West 9.2 mph - N/A   Clear
4:20 AM 51.8 °F 28.4 °F 41% 30.06 in - WNW 10.4 mph - N/A   Clear
4:50 AM 53.6 °F 28.4 °F 38% 30.06 in - WNW 11.5 mph - N/A   Clear
5:20 AM 50.0 °F 28.4 °F 43% 30.06 in - NW 9.2 mph - N/A   Clear
5:50 AM 48.2 °F 28.4 °F 46% 30.06 in - NW 10.4 mph - N/A   Clear
6:20 AM 50.0 °F 28.4 °F 43% 30.09 in - West 9.2 mph - N/A   Clear
6:50 AM 51.8 °F 28.4 °F 41% 30.09 in - WNW 9.2 mph - N/A   Clear
7:20 AM 55.4 °F 28.4 °F 36% 30.09 in - West 5.8 mph - N/A   Clear
7:50 AM 59.0 °F 30.2 °F 34% 30.09 in - NW 11.5 mph - N/A   Clear
8:20 AM 60.8 °F 30.2 °F 31% 30.09 in - NW 10.4 mph - N/A   Clear
8:50 AM 62.6 °F 28.4 °F 27% 30.09 in - NNW 8.1 mph - N/A   Clear
9:00 AM 63 °F 28 °F 15% 30.05 in 12 mi NNW 8.1 mph - -  
9:20 AM 64.4 °F 26.6 °F 24% 30.09 in - NNW 9.2 mph - N/A   Clear
9:50 AM 66.2 °F 26.6 °F 23% 30.09 in - North 8.1 mph - N/A   Clear
10:20 AM 68.0 °F 26.6 °F 21% 30.09 in - Variable 6.9 mph - N/A   Clear
10:50 AM 69.8 °F 24.8 °F 18% 30.09 in - NW 6.9 mph - N/A   Clear
11:20 AM 69.8 °F 23.0 °F 17% 30.09 in - NNW 6.9 mph - N/A   Clear
11:50 AM 71.6 °F 21.2 °F 15% 30.06 in - NNW 6.9 mph - N/A   Clear
12:20 PM 71.6 °F 21.2 °F 15% 30.06 in - NNE 8.1 mph - N/A   Clear
12:50 PM 73.4 °F 17.6 °F 12% 30.04 in - North 8.1 mph - N/A   Clear
1:20 PM 73.4 °F 17.6 °F 12% 30.04 in - NNW 6.9 mph - N/A   Clear
1:50 PM 75.2 °F 17.6 °F 11% 30.04 in - Variable 3.5 mph - N/A   Clear
2:20 PM 75.2 °F 17.6 °F 11% 30.04 in - WNW 3.5 mph - N/A   Clear
2:50 PM 75.2 °F 15.8 °F 11% 30.01 in - WNW 5.8 mph - N/A   Clear
3:00 PM 75 °F 16 °F 4% 29.95 in 7 mi WNW 5.8 mph - -  
3:20 PM 75.2 °F 15.8 °F 11% 30.01 in - North 5.8 mph - N/A   Clear
3:50 PM 75.2 °F 15.8 °F 11% 30.01 in - NNW 6.9 mph - N/A   Clear
4:20 PM 75.2 °F 15.8 °F 11% 30.01 in - NNW 5.8 mph - N/A   Clear
4:50 PM 75.2 °F 14.0 °F 10% 30.01 in - NNW 8.1 mph - N/A   Clear
5:20 PM 73.4 °F 15.8 °F 11% 30.01 in - NNW 5.8 mph - N/A   Clear
5:50 PM 71.6 °F 14.0 °F 11% 30.01 in - NNW 4.6 mph - N/A   Clear
6:20 PM 68.0 °F 14.0 °F 12% 30.01 in - NW 3.5 mph - N/A   Clear
6:50 PM 64.4 °F 15.8 °F 15% 30.01 in - WNW 3.5 mph - N/A   Clear
7:20 PM 64.4 °F 15.8 °F 15% 30.01 in - West 4.6 mph - N/A   Clear
7:50 PM 55.4 °F 17.6 °F 23% 30.01 in - NW 6.9 mph - N/A   Clear
8:20 PM 55.4 °F 17.6 °F 23% 30.01 in - West 4.6 mph - N/A   Clear
8:50 PM 59.0 °F 21.2 °F 23% 30.04 in - West 6.9 mph - N/A   Clear
9:20 PM 57.2 °F 23.0 °F 27% 30.01 in - WSW 9.2 mph - N/A   Clear
9:50 PM 55.4 °F 21.2 °F 26% 30.01 in - West 9.2 mph - N/A   Clear
10:20 PM 57.2 °F 21.2 °F 25% 30.01 in - West 9.2 mph - N/A   Clear
10:50 PM 55.4 °F 21.2 °F 26% 30.01 in - West 4.6 mph - N/A   Clear
11:20 PM 51.8 °F 21.2 °F 30% 30.01 in - West 4.6 mph - N/A   Clear
11:50 PM 53.6 °F 21.2 °F 28% 30.01 in - West 5.8 mph - N/A   Clear